Preview of NWS' New Version of Forecast
This preview is not operational and should not be used for support decisions.

Regional Weather Roundup (RWR)

Issued by National Weather Service (NWS)

                            
000
ASUS43 KTOP 181559
RWRKS 

WEATHER ROUNDUP FOR KANSAS
NATIONAL WEATHER SERVICE GOODLAND KS
1100 AM CDT TUE JUN 18 2019

NOTE:  "FAIR" INDICATES FEW OR NO CLOUDS BELOW 12,000 FEET WITH NO
SIGNIFICANT WEATHER AND/OR OBSTRUCTIONS TO VISIBILITY.

KSZ001>006-013>018-027>032-041>047-181700-
NORTHWEST KANSAS
  
CITY           SKY/WX    TMP DP  RH WIND       PRES   REMARKS
GOODLAND       CLOUDY    62  60  93 N8        30.03S                  
HAYS           CLOUDY    66  63  90 E7        29.98S                  
HILL CITY      CLOUDY    65  63  93 E6        29.99S                  
RUSSELL        LGT RAIN  65  63  93 E5        29.96F FOG              
$$

KSZ061>065-074>080-084>089-181700-
SOUTHWEST KANSAS
  
CITY           SKY/WX    TMP DP  RH WIND       PRES   REMARKS
DODGE CITY     MOSUNNY   71  66  84 SE7       29.98S                  
GARDEN CITY    SUNNY     70  62  76 CALM      29.98F                  
GREAT BEND     RAIN      63  62  97 S3        29.98S                  
LIBERAL        PTSUNNY   71  64  78 E7        29.99F                  
$$

KSZ066>073-081>083-090>101-181700-
SOUTHEAST KANSAS
  
CITY           SKY/WX    TMP DP  RH WIND       PRES   REMARKS
CHANUTE        MOSUNNY   80  68  66 NE5       29.95S                  
COFFEYVILLE    MOSUNNY   81  67  62 NE3       29.93S                  
HUTCHINSON     CLOUDY    72  64  76 NW5       29.95S                  
MEDICINE LODGE   N/A     74  66  76 SE8       29.93F                  
NEWTON         PTSUNNY   73  65  75 SE3       29.96F                  
PARSONS        MOSUNNY   79  68  69 CALM      29.95S                  
WICHITA INTL   CLOUDY    76  66  71 CALM      29.95S                  
WICHITA JABRA  PTSUNNY   73  67  81 E3        29.95S                  
WICHITA MCCONL PTSUNNY   75  67  76 E3        29.95F                  
WINFIELD       MOSUNNY   77  69  76 S3        29.96F                  
$$

KSZ007>012-019>026-033>040-048>060-102>105-181700-
NORTHEAST KANSAS
  
CITY           SKY/WX    TMP DP  RH WIND       PRES   REMARKS
CONCORDIA      PTSUNNY   72  67  84 CALM      29.94S                  
EMPORIA        MOSUNNY   79  69  71 S6        29.94F                  
LAWRENCE       PTSUNNY   75  67  76 VRB5      29.95S                  
MANHATTAN      PTSUNNY   77  68  73 E7        29.92F                  
OLATHE IND     PTSUNNY   72  65  78 E3        29.97R                  
OLATHE EXE     MOSUNNY   73  66  78 E5        29.96R                  
SALINA         MOSUNNY   74  65  73 W3        29.94S                  
TOPEKA BILLARD PTSUNNY   79  66  64 E6        29.93F                  
TOPEKA FORBES  SUNNY     80  66  62 E6        29.94S                  
$$